OneWeb SL0240

operational
NORAD ID: 48785 Int'l Des: 2021-045 Owner: ONEWEBN Country: UK Constellation: oneweb
LEOCIRCULARPOLARONEWEB_TYPE

Über OneWeb SL0240

Beschreibung wird geladen...

Live-Position

3D-Globus wird geladen...

Nächste Überflüge

Höhenverlauf

Altitude vs Time

uPlot chart will show altitude changes over time

Zweizeiliger Elementsatz

1 48785U 21045U 25305.46734165 .00000153 00000-0 37285-3 0 9992
2 48785 87.8969 304.6035 0002265 93.0897 267.0493 13.15547852214462
Epoch: 1. Nov. 2025 • Age: 15 hours

Aktueller Status

Höhe 1206.0 km
Geschwindigkeit 7.26 km/s
Subsatellitenpunkt 38.02°N, 43.13°E
Startdatum 28. Mai 2021
Alter 4.4 years
Typ internet

Technische Details

Klassifizierung Payload
Masse 148.00 kg
Trockenmasse 140.00 kg
Gesamtmasse 148.00 kg
Länge 1.30 m
Durchmesser 1.00 m
Spannweite 5.00 m
Form Trapezoid+2 pan
Hersteller ONEWUS
Bus-Typ ARROW
Phasenstatus In Orbit
Besitzer/Staat ONEWEBN/UK

Große Konstellationen

Loading constellations...